Cartagena, Colombia

6:16 AM COT on February 12, 2016 (GMT -0500)
Rafael Nunez

Weather History for SKCG - September, 2013

Change the Weather History Date:

Friday, September 13, 2013

  Actual Average Record
Temperature  
Mean Temperature 84 °F -  
Max Temperature 90 °F 89 °F 96 °F (2011)
Min Temperature 77 °F 77 °F 57 °F (2008)
Cooling Degree Days 18    
Growing Degree Days 34 (Base 50)    
Moisture  
Dew Point 77 °F    
Average Humidity 80    
Maximum Humidity 100    
Minimum Humidity 58    
Precipitation  
Precipitation 0.00 in 0.25 in - ()
Sea Level Pressure  
Sea Level Pressure 29.76 in    
Wind  
Wind Speed 3 mph ()    
Max Wind Speed 9 mph    
Max Gust Speed -    
Visibility 6.4 miles    
Events      
Averages and records for this station are not official NWS values.
T = Trace of Precipitation, MM = Missing Value Source: Averaged Metar Reports

Daily Weather History Graph

Daily Weather History Graph

Search for Another Location

Airport or City:

Trip Planner

Search our weather history database for the weather conditions in past years. The results will help you decide how hot, cold, wet, or windy it might be!

Date:

Astronomy

Sep. 13, 2013 Rise Set
Actual Time 5:51 AM COT 6:03 PM COT
Civil Twilight 5:30 AM COT 6:24 PM COT
Nautical Twilight 5:06 AM COT 6:49 PM COT
Astronomical Twilight 4:41 AM COT 7:13 PM COT
Moon 1:06 PM COT (9/13) 12:05 AM COT (9/13)
Length of Visible Light 12h 53m
Length of Day
12h 11m
First Quarter, 61% of the Moon is Illuminated
Sep 13
First Quarter
Sep 19
Full
Sep 26
Last Quarter
Oct 4
New
Oct 11
First Quarter

Hourly Weather History & Observations

Time (COT) Temp. Heat Index Dew Point Humidity Pressure Visibility Wind Dir Wind Speed Gust Speed Precip Events Conditions
12:00 AM 84.2 °F 94.1 °F 77.0 °F 79% 29.81 in 6.2 mi NW 5.8 mph - N/A   Partly Cloudy
1:00 AM 80.6 °F 88.1 °F 78.8 °F 94% 29.81 in 6.2 mi Variable 2.3 mph - N/A   Mostly Cloudy
2:00 AM 78.8 °F - 77.0 °F 94% 29.78 in 6.2 mi Variable 2.3 mph - N/A   Scattered Clouds
3:00 AM 78.8 °F - 77.0 °F 94% 29.76 in 6.2 mi Variable 2.3 mph - N/A   Partly Cloudy
4:00 AM 79 °F - 77 °F 91% 29.78 in 7 mi Calm Calm - -   Haze
4:00 AM 78.8 °F - 77.0 °F 94% 29.77 in 6.2 mi Calm Calm - N/A   Partly Cloudy
5:00 AM 75.2 °F - 75.2 °F 100% 29.77 in 6.2 mi NNE 4.6 mph - N/A   Scattered Clouds
6:00 AM 77.0 °F - 75.2 °F 94% 29.79 in 6.2 mi Variable 2.3 mph - N/A   Partly Cloudy
7:00 AM 79 °F - 76 °F 88% 29.79 in 7 mi Calm Calm - -   Haze
7:00 AM 78.8 °F - 77.0 °F 94% 29.79 in 6.2 mi Calm Calm - N/A   Partly Cloudy
8:00 AM 82.4 °F 89.5 °F 75.2 °F 79% 29.80 in 6.2 mi Calm Calm - N/A   Partly Cloudy
9:00 AM 86.0 °F 99.3 °F 78.8 °F 79% 29.81 in 6.2 mi SSW 4.6 mph - N/A   Partly Cloudy
10:00 AM 84 °F - 77 °F 75% 29.82 in 7 mi 2.2 mph - -   Haze
10:00 AM 84.2 °F 94.1 °F 77.0 °F 79% 29.81 in 6.2 mi Variable 2.3 mph - N/A   Partly Cloudy
11:00 AM 86.0 °F 99.3 °F 78.8 °F 79% 29.80 in 6.2 mi NW 4.6 mph - N/A   Scattered Clouds
12:00 PM 87.8 °F 99.7 °F 77.0 °F 70% 29.78 in 6.2 mi NW 9.2 mph - N/A   Partly Cloudy
1:00 PM 89 °F - 76 °F 58% 29.77 in 7 mi WNW 4.5 mph - -   Haze
1:00 PM 89.6 °F 102.2 °F 77.0 °F 66% 29.76 in 6.2 mi WNW 4.6 mph - N/A   Scattered Clouds
2:00 PM 87.8 °F 99.7 °F 77.0 °F 70% 29.73 in 6.2 mi West 6.9 mph - N/A   Scattered Clouds
3:00 PM 87.8 °F 99.7 °F 77.0 °F 70% 29.71 in 6.2 mi West 4.6 mph - N/A   Scattered Clouds
4:00 PM 87 °F - 75 °F 59% 29.71 in 7 mi WNW 4.5 mph - -   Haze
4:00 PM 87.8 °F 97.6 °F 75.2 °F 66% 29.70 in 6.2 mi WNW 4.6 mph - N/A   Scattered Clouds
5:00 PM 86.0 °F 95.1 °F 75.2 °F 70% 29.68 in 6.2 mi WNW 4.6 mph - N/A   Scattered Clouds
6:00 PM 86.0 °F 95.1 °F 75.2 °F 70% 29.68 in 6.2 mi North 4.6 mph - N/A   Scattered Clouds
7:00 PM 85 °F - 76 °F 68% 29.71 in 7 mi NNW 6.7 mph - -   Haze
7:00 PM 86.0 °F 96.9 °F 77.0 °F 74% 29.70 in 6.2 mi NNW 6.9 mph - N/A   Scattered Clouds
8:00 PM 84.2 °F 96.1 °F 78.8 °F 84% 29.72 in 6.2 mi NNE 4.6 mph - N/A   Scattered Clouds
9:00 PM 82.4 °F 92.4 °F 78.8 °F 89% 29.73 in 6.2 mi NNE 3.5 mph - N/A   Scattered Clouds
10:00 PM 82 °F - 78 °F 83% 29.76 in 7 mi NNE 2.2 mph - -   Haze
10:00 PM 82.4 °F 90.9 °F 77.0 °F 84% 29.75 in 6.2 mi NNE 3.5 mph - N/A   Scattered Clouds
11:00 PM 82.4 °F 92.4 °F 78.8 °F 89% 29.74 in 6.2 mi Calm Calm - N/A   Scattered Clouds